This is the latest recevied weather packets stored in our database for station/object W1ERB-13. If no packets are shown the sender has not sent any weather packets the latest 1 day(s).
| Time | Temp. | Humidity | Pressure | Rain* | Wind** | Luminosity | Snow |
|---|---|---|---|---|---|---|---|
| 1777993789 | 21.11° C | 58% | 1010.4 hPa | 0 mm | 0.89 m/s, 222° | 744 W/m² | - |
| 1777993486 | 20.56° C | 58% | 1010.5 hPa | 0 mm | 1.34 m/s, 223° | 761 W/m² | - |
| 1777993185 | 20.56° C | 60% | 1010.7 hPa | 0 mm | 1.34 m/s, 211° | 748 W/m² | - |
| 1777992883 | 20° C | 60% | 1010.6 hPa | 0 mm | 2.68 m/s, 279° | 706 W/m² | - |
| 1777992582 | 20.56° C | 59% | 1010.5 hPa | 0 mm | 2.68 m/s, 265° | 679 W/m² | - |
| 1777992279 | 21.11° C | 61% | 1009.9 hPa | 0 mm | 0.45 m/s, 284° | 741 W/m² | - |
| 1777991976 | 20.56° C | 59% | 1009.8 hPa | 0 mm | 1.34 m/s, 259° | 755 W/m² | - |
| 1777991674 | 20° C | 63% | 1010.1 hPa | 0 mm | 0.89 m/s, 216° | 776 W/m² | - |
| 1777991371 | 20° C | 63% | 1010.1 hPa | 0 mm | 1.79 m/s, 229° | 775 W/m² | - |
| 1777991068 | 20° C | 65% | 1010 hPa | 0 mm | 0.89 m/s, 251° | 768 W/m² | - |
| 1777990765 | 20° C | 66% | 1010.1 hPa | 0 mm | 1.34 m/s, 232° | 770 W/m² | - |
| 1777990462 | 19.44° C | 66% | 1010 hPa | 0 mm | 1.79 m/s, 243° | 713 W/m² | - |
| 1777990159 | 18.89° C | 68% | 1010 hPa | 0 mm | 1.34 m/s, 186° | 710 W/m² | - |
| 1777989855 | 18.89° C | 68% | 1010.3 hPa | 0 mm | 0.89 m/s, 256° | 713 W/m² | - |
| 1777989547 | 18.33° C | 69% | 1010 hPa | 0 mm | 1.34 m/s, 249° | 699 W/m² | - |
| 1777989244 | 17.78° C | 71% | 1010.2 hPa | 0 mm | 0.89 m/s, 219° | 655 W/m² | - |
| 1777988940 | 17.22° C | 74% | 1010.3 hPa | 0 mm | 0.45 m/s, 241° | 401 W/m² | - |
| 1777988636 | 16.11° C | 76% | 1010.4 hPa | 0 mm | 0.89 m/s, 247° | 542 W/m² | - |
| 1777988333 | 16.11° C | 76% | 1010.1 hPa | 0 mm | 0.45 m/s, 235° | 256 W/m² | - |
| 1777988030 | 16.11° C | 77% | 1010.2 hPa | 0 mm | 0.45 m/s, 213° | 243 W/m² | - |
| 1777987725 | 15.56° C | 77% | 1010.4 hPa | 0 mm | 0.45 m/s, 223° | 208 W/m² | - |
| 1777987423 | 15.56° C | 78% | 1009.7 hPa | 0 mm | 0.89 m/s, 248° | 158 W/m² | - |
| 1777987120 | 15.56° C | 77% | 1009.7 hPa | 0 mm | 0 m/s | 118 W/m² | - |
| 1777986817 | 15.56° C | 77% | 1010 hPa | 0 mm | 0.45 m/s, 199° | 101 W/m² | - |
| 1777986515 | 15.56° C | 77% | 1009.9 hPa | 0 mm | 1.34 m/s, 155° | 110 W/m² | - |
* Rain latest hour (hover to see other rain measurements)
** Current wind speed in m/s (hover to see current wind gust speed)